{"data":{"norad_id":59153,"intl_designator":"2024-044B","name":"STARLINK-31308","alt_names":[],"object_type":"PAYLOAD","status":"ACTIVE","operator":null,"country":"US","launch_date":"2024-03-04","launch_site_code":"AFETR","launch_vehicle":null,"mission":null,"orbit_class":"UNKNOWN","rcs_meters":null,"size_class":null,"mass_kg":null,"dimensions":null,"purposes":["comms"],"wikipedia_slug":null,"has_3d_model":false,"image_url":null,"decayed_at":null,"tle_current":{"epoch":"2026-09-20T15:35:56.012640Z","epoch_age_seconds":145862,"freshness":"FRESH","line1":"1 59153U 24044B   26263.64995385  .00000614  00000+0  31851-4 0  9997","line2":"2 59153  43.0032  39.1591 0001353 264.5765  95.4932 15.27580503143963","mean_motion":15.27580503,"eccentricity":0.0001353,"inclination_deg":43.0032,"raan_deg":39.1591,"arg_perigee_deg":264.5765,"mean_anomaly_deg":95.4932,"bstar":3.1851e-5,"rev_number":14396,"period_min":94.266717673602,"perigee_km":482.1192716021,"apogee_km":483.97590815212,"semimajor_km":6861.1845898771,"source":"CELESTRAK","updated_at":"2026-09-21T09:00:34.038100Z"}}}